When you browse on this site, cookies collect data to enhance your experience and personalize the content and advertising you see.
Visit our Privacy Policy to learn more. By continuing to use the site, you agree to this use of cookies and data.
  • en Belgique
  • Liste des pays
  • À 7 jours
  • Température de l'eau
  • Carte satellitaire
  • Carte météo
  • Widgets météo
  • user-avatar
    Se connecter

    Météo par heure à Molepolole

    Ce jour, 18 Juin, Mardi

    Heure Température Précipitation Vent Pression Humidité
    00:00 +9°C° 0 mm 1 m/s 669 mmHg 40%
    01:00 +9°C° 0 mm 1 m/s 669 mmHg 42%
    02:00 +8°C° 0 mm 1 m/s 669 mmHg 45%
    03:00 +8°C° 0 mm 1 m/s 669 mmHg 45%
    04:00 +8°C° 0 mm 1 m/s 668 mmHg 46%
    05:00 +8°C° 0 mm 1 m/s 668 mmHg 46%
    06:00 +9°C° 0 mm 1 m/s 669 mmHg 42%
    07:00 +10°C° 0 mm 1 m/s 670 mmHg 38%
    08:00 +10°C° 0 mm 2 m/s 670 mmHg 35%
    09:00 +14°C° 0 mm 2 m/s 671 mmHg 28%
    10:00 +17°C° 0 mm 3 m/s 672 mmHg 22%
    11:00 +20°C° 0 mm 3 m/s 672 mmHg 16%
    12:00 +21°C° 0 mm 3 m/s 672 mmHg 15%
    13:00 +22°C° 0 mm 3 m/s 671 mmHg 13%
    14:00 +24°C° 0 mm 3 m/s 671 mmHg 12%
    15:00 +23°C° 0 mm 2 m/s 670 mmHg 13%
    16:00 +21°C° 0 mm 2 m/s 670 mmHg 14%
    17:00 +20°C° 0 mm 2 m/s 669 mmHg 14%
    18:00 +18°C° 0 mm 2 m/s 669 mmHg 18%
    19:00 +15°C° 0 mm 1 m/s 669 mmHg 21%
    20:00 +13°C° 0 mm 1 m/s 669 mmHg 24%
    21:00 +12°C° 0 mm 1 m/s 669 mmHg 27%
    22:00 +11°C° 0 mm 1 m/s 669 mmHg 30%
    23:00 +10°C° 0 mm 1 m/s 669 mmHg 33%

    Demain, 19 Juin, Mercredi

    Heure Température Précipitation Vent Pression Humidité
    00:00 +10°C° 0 mm 1 m/s 669 mmHg 31%
    01:00 +9°C° 0 mm 2 m/s 669 mmHg 29%
    02:00 +9°C° 0 mm 2 m/s 669 mmHg 26%
    03:00 +8°C° 0 mm 2 m/s 669 mmHg 29%
    04:00 +7°C° 0 mm 2 m/s 669 mmHg 32%
    05:00 +6°C° 0 mm 2 m/s 669 mmHg 34%
    06:00 +6°C° 0 mm 2 m/s 670 mmHg 34%
    07:00 +7°C° 0 mm 2 m/s 670 mmHg 33%
    08:00 +8°C° 0 mm 2 m/s 671 mmHg 33%
    09:00 +11°C° 0 mm 3 m/s 672 mmHg 29%
    10:00 +14°C° 0 mm 4 m/s 672 mmHg 25%
    11:00 +17°C° 0 mm 5 m/s 673 mmHg 20%
    12:00 +19°C° 0 mm 5 m/s 673 mmHg 19%
    13:00 +21°C° 0 mm 5 m/s 672 mmHg 17%
    14:00 +22°C° 0 mm 5 m/s 672 mmHg 15%
    15:00 +21°C° 0 mm 4 m/s 671 mmHg 16%
    16:00 +20°C° 0 mm 3 m/s 671 mmHg 17%
    17:00 +19°C° 0 mm 3 m/s 671 mmHg 18%
    18:00 +16°C° 0 mm 2 m/s 670 mmHg 22%
    19:00 +14°C° 0 mm 2 m/s 670 mmHg 26%
    20:00 +11°C° 0 mm 1 m/s 670 mmHg 29%
    21:00 +10°C° 0 mm 1 m/s 670 mmHg 33%
    22:00 +10°C° 0 mm 1 m/s 670 mmHg 36%
    23:00 +8°C° 0 mm 0 m/s 670 mmHg 39%

    Après-demain, 20 Juin, Jeudi

    Heure Température Précipitation Vent Pression Humidité
    00:00 +7°C° 0 mm 0 m/s 670 mmHg 40%
    01:00 +8°C° 0 mm 1 m/s 669 mmHg 41%
    02:00 +7°C° 0 mm 1 m/s 669 mmHg 43%
    03:00 +7°C° 0 mm 1 m/s 669 mmHg 42%
    04:00 +7°C° 0 mm 1 m/s 669 mmHg 41%
    05:00 +6°C° 0 mm 1 m/s 669 mmHg 41%
    06:00 +7°C° 0 mm 1 m/s 670 mmHg 38%
    07:00 +8°C° 0 mm 1 m/s 670 mmHg 35%
    08:00 +9°C° 0 mm 1 m/s 671 mmHg 32%
    09:00 +12°C° 0 mm 2 m/s 671 mmHg 28%
    10:00 +15°C° 0 mm 2 m/s 672 mmHg 25%
    11:00 +18°C° 0 mm 2 m/s 673 mmHg 21%
    12:00 +19°C° 0 mm 2 m/s 672 mmHg 19%
    13:00 +21°C° 0 mm 3 m/s 672 mmHg 16%
    14:00 +22°C° 0 mm 3 m/s 671 mmHg 14%
    15:00 +22°C° 0 mm 3 m/s 671 mmHg 15%
    16:00 +21°C° 0 mm 2 m/s 670 mmHg 17%
    17:00 +20°C° 0 mm 2 m/s 670 mmHg 18%
    18:00 +17°C° 0 mm 2 m/s 670 mmHg 23%
    19:00 +15°C° 0 mm 2 m/s 669 mmHg 28%
    20:00 +12°C° 0 mm 2 m/s 669 mmHg 33%
    21:00 +10°C° 0 mm 2 m/s 669 mmHg 37%
    22:00 +11°C° 0 mm 1 m/s 669 mmHg 41%
    23:00 +10°C° 0 mm 1 m/s 669 mmHg 45%

    21 Juin, Vendredi

    Heure Température Précipitation Vent Pression Humidité
    00:00 +10°C° 0 mm 1 m/s 669 mmHg 45%
    01:00 +8°C° 0 mm 2 m/s 669 mmHg 45%
    02:00 +8°C° 0 mm 2 m/s 669 mmHg 44%
    03:00 +7°C° 0 mm 2 m/s 669 mmHg 48%
    04:00 +6°C° 0 mm 2 m/s 668 mmHg 51%
    05:00 +6°C° 0 mm 2 m/s 668 mmHg 55%
    06:00 +6°C° 0 mm 2 m/s 669 mmHg 56%
    07:00 +7°C° 0 mm 2 m/s 670 mmHg 57%
    08:00 +8°C° 0 mm 2 m/s 670 mmHg 58%
    09:00 +12°C° 0 mm 2 m/s 671 mmHg 51%
    10:00 +15°C° 0 mm 2 m/s 671 mmHg 44%
    11:00 +18°C° 0 mm 3 m/s 672 mmHg 37%
    12:00 +19°C° 0 mm 2 m/s 671 mmHg 32%
    13:00 +21°C° 0 mm 2 m/s 671 mmHg 27%
    14:00 +23°C° 0 mm 2 m/s 670 mmHg 21%
    15:00 +22°C° 0 mm 1 m/s 670 mmHg 23%
    16:00 +22°C° 0 mm 1 m/s 669 mmHg 24%
    17:00 +21°C° 0 mm 1 m/s 668 mmHg 25%
    18:00 +18°C° 0 mm 1 m/s 668 mmHg 32%
    19:00 +14°C° 0 mm 1 m/s 667 mmHg 40%
    20:00 +10°C° 0 mm 0 m/s 667 mmHg 48%
    21:00 +9°C° 0 mm 0 m/s 666 mmHg 50%
    22:00 +10°C° 0 mm 1 m/s 666 mmHg 52%
    23:00 +9°C° 0 mm 1 m/s 666 mmHg 54%

    22 Juin, Samedi

    Heure Température Précipitation Vent Pression Humidité
    00:00 +9°C° 0 mm 1 m/s 666 mmHg 54%
    01:00 +9°C° 0 mm 1 m/s 665 mmHg 54%
    02:00 +8°C° 0 mm 1 m/s 665 mmHg 54%
    03:00 +8°C° 0 mm 1 m/s 665 mmHg 53%
    04:00 +8°C° 0 mm 1 m/s 665 mmHg 52%
    05:00 +8°C° 0 mm 1 m/s 665 mmHg 50%
    06:00 +8°C° 0 mm 2 m/s 666 mmHg 47%
    07:00 +8°C° 0 mm 2 m/s 667 mmHg 43%
    08:00 +9°C° 0 mm 3 m/s 667 mmHg 40%
    09:00 +12°C° 0 mm 3 m/s 668 mmHg 35%
    10:00 +16°C° 0 mm 3 m/s 669 mmHg 30%
    11:00 +19°C° 0 mm 3 m/s 669 mmHg 25%
    12:00 +20°C° 0 mm 3 m/s 669 mmHg 22%
    13:00 +21°C° 0 mm 3 m/s 669 mmHg 19%
    14:00 +24°C° 0 mm 3 m/s 668 mmHg 16%
    15:00 +22°C° 0 mm 3 m/s 668 mmHg 17%
    16:00 +21°C° 0 mm 3 m/s 668 mmHg 18%
    17:00 +20°C° 0 mm 3 m/s 667 mmHg 19%
    18:00 +18°C° 0 mm 3 m/s 667 mmHg 23%
    19:00 +14°C° 0 mm 3 m/s 667 mmHg 27%
    20:00 +12°C° 0 mm 4 m/s 667 mmHg 31%
    21:00 +10°C° 0 mm 3 m/s 667 mmHg 30%
    22:00 +9°C° 0 mm 3 m/s 667 mmHg 28%
    23:00 +8°C° 0 mm 3 m/s 667 mmHg 27%

    23 Juin, Dimanche

    Heure Température Précipitation Vent Pression Humidité
    00:00 +7°C° 0 mm 3 m/s 666 mmHg 28%
    01:00 +6°C° 0 mm 2 m/s 666 mmHg 29%
    02:00 +5°C° 0 mm 2 m/s 666 mmHg 30%
    03:00 +5°C° 0 mm 2 m/s 666 mmHg 32%
    04:00 +5°C° 0 mm 2 m/s 666 mmHg 33%
    05:00 +4°C° 0 mm 2 m/s 666 mmHg 35%
    06:00 +5°C° 0 mm 2 m/s 667 mmHg 35%
    07:00 +5°C° 0 mm 2 m/s 667 mmHg 35%
    08:00 +6°C° 0 mm 2 m/s 668 mmHg 35%
    09:00 +9°C° 0 mm 3 m/s 668 mmHg 38%
    10:00 +12°C° 0 mm 4 m/s 669 mmHg 41%
    11:00 +14°C° 0 mm 4 m/s 670 mmHg 44%
    12:00 +17°C° 0 mm 4 m/s 669 mmHg 40%
    13:00 +18°C° 0 mm 3 m/s 669 mmHg 35%
    14:00 +20°C° 0 mm 3 m/s 669 mmHg 30%
    15:00 +19°C° 0 mm 3 m/s 668 mmHg 30%
    16:00 +19°C° 0 mm 2 m/s 668 mmHg 30%
    17:00 +19°C° 0 mm 2 m/s 668 mmHg 30%
    18:00 +16°C° 0 mm 2 m/s 667 mmHg 40%
    19:00 +13°C° 0 mm 2 m/s 667 mmHg 51%
    20:00 +9°C° 0 mm 2 m/s 667 mmHg 61%
    21:00 +9°C° 0 mm 2 m/s 667 mmHg 66%
    22:00 +8°C° 0 mm 2 m/s 667 mmHg 71%
    23:00 +7°C° 0 mm 2 m/s 667 mmHg 76%
    Voir plus